K9JDN Weather Reports


time (UTC)temp
C
wind
direction
speed
KPH
gust
KPH
rain 1hr
cm
rain 24hr
cm
rain mn
cm
humidity
%
barometer
mb
20260906021607 30 86 0.0 0.0 0.00 0.00 0.00 73 1015.2
20260906020106 30 91 0.0 3.2 0.00 0.00 0.00 72 1015.1
20260906014603 30 77 0.0 1.6 0.00 0.00 0.00 70 1014.8
20260906013122 30 0 0.0 0.0 0.00 0.00 0.00 69 1014.7
20260906011608 30 0 0.0 0.0 0.00 0.00 0.00 69 1014.5
20260906010106 29 0 0.0 0.0 0.00 0.00 0.00 72 1014.5
20260906004607 30 0 0.0 0.0 0.00 0.00 0.00 72 1014.3
20260906003102 30 0 0.0 0.0 0.00 0.00 0.00 72 1014.4
20260906001610 30 0 0.0 0.0 0.00 0.00 0.00 71 1014.4
20260906000108 30 0 0.0 0.0 0.00 0.00 0.00 69 1014.4
20260905234603 31 0 0.0 0.0 0.00 0.00 0.00 70 1014.3
20260905233107 30 0 0.0 0.0 0.00 0.00 0.00 64 1014.3
20260905231608 30 0 0.0 3.2 0.00 0.00 0.00 71 1014.4
20260905230109 30 105 0.0 1.6 0.00 0.00 0.00 72 1014.3
20260905224619 30 117 0.0 1.6 0.00 0.00 0.00 68 1014.5
20260905223118 28 0 0.0 0.0 0.00 0.00 0.00 65 1014.4
20260905221606 29 323 1.6 8.0 0.00 0.00 0.00 75 1014.3
20260905220103 30 0 0.0 6.4 0.00 0.00 0.00 64 1014.5
20260905214604 35 18 0.0 3.2 0.00 0.00 0.00 59 1014.4
20260905213107 39 0 0.0 0.0 0.00 0.00 0.00 42 1014.2
20260905211604 37 0 1.6 6.4 0.00 0.00 0.00 53 1014.3
20260905210107 38 37 1.6 6.4 0.00 0.00 0.00 47 1014.4
20260905204606 37 333 1.6 8.0 0.00 0.00 0.00 53 1014.4
20260905203105 37 283 1.6 6.4 0.00 0.00 0.00 48 1014.5
20260905201610 36 316 0.0 6.4 0.00 0.00 0.00 47 1014.6
20260905200109 37 0 0.0 3.2 0.00 0.00 0.00 51 1014.7
20260905194608 38 286 1.6 4.8 0.00 0.00 0.00 47 1014.8
20260905193104 38 0 0.0 3.2 0.00 0.00 0.00 44 1015.0
20260905191609 37 0 0.0 6.4 0.00 0.00 0.00 53 1015.2
20260905190105 37 286 0.0 6.4 0.00 0.00 0.00 47 1015.3
20260905184609 38 240 0.0 4.8 0.00 0.00 0.00 50 1015.4
20260905183109 38 245 0.0 3.2 0.00 0.00 0.00 54 1015.7
20260905181604 37 248 0.0 1.6 0.00 0.00 0.00 56 1015.9
20260905180106 37 256 0.0 3.2 0.00 0.00 0.00 57 1016.0
20260905174603 37 0 0.0 1.6 0.00 0.00 0.00 58 1016.1
20260905173131 35 0 0.0 4.8 0.00 0.00 0.00 54 1016.1
20260905171604 36 262 0.0 3.2 0.00 0.00 0.00 56 1016.3
20260905170127 35 248 0.0 3.2 0.00 0.00 0.00 60 1016.5
20260905164609 35 58 1.6 3.2 0.00 0.00 0.00 55 1016.7
20260905163122 33 342 1.6 4.8 0.00 0.00 0.00 65 1016.9
20260905161615 33 268 0.0 3.2 0.00 0.00 0.00 65 1017.0
20260905160101 33 304 1.6 3.2 0.00 0.00 0.00 66 1017.0
20260905154616 33 252 0.0 3.2 0.00 0.00 0.00 66 1017.1
20260905153102 32 0 0.0 3.2 0.00 0.00 0.00 69 1017.1
20260905151603 31 267 0.0 4.8 0.00 0.00 0.00 71 1017.1
20260905150109 30 275 1.6 4.8 0.00 0.00 0.00 66 1017.1
20260905144605 30 276 1.6 6.4 0.00 0.00 0.00 73 1016.8
20260905143110 30 341 1.6 4.8 0.00 0.00 0.00 67 1016.8
20260905141606 30 302 0.0 3.2 0.00 0.00 0.00 74 1016.9
20260905140105 29 265 0.0 1.6 0.00 0.00 0.00 69 1016.9
20260905134605 28 283 0.0 4.8 0.00 0.00 0.00 78 1016.9
20260905133106 28 281 0.0 1.6 0.00 0.00 0.00 78 1016.8
20260905131604 27 276 0.0 1.6 0.00 0.00 0.00 79 1016.7
20260905130059 27 0 0.0 1.6 0.00 0.00 0.00 81 1016.7
20260905124605 26 0 0.0 3.2 0.00 0.00 0.00 83 1016.5
20260905123110 26 0 0.0 0.0 0.00 0.00 0.00 84 1016.4
20260905121559 26 0 0.0 0.0 0.00 0.00 0.00 84 1016.2
20260905120106 26 0 0.0 0.0 0.00 0.00 0.00 87 1016.1
20260905114606 26 327 0.0 1.6 0.00 0.00 0.00 86 1015.8
20260905113100 25 0 0.0 0.0 0.00 0.00 0.00 85 1015.6
20260905111601 26 0 0.0 0.0 0.00 0.00 0.00 84 1015.6
20260905110104 26 0 0.0 0.0 0.00 0.00 0.00 83 1015.5
20260905104603 26 0 0.0 1.6 0.00 0.00 0.00 82 1015.5
20260905103106 26 0 0.0 0.0 0.00 0.00 0.00 82 1015.6
20260905101609 26 0 0.0 0.0 0.00 0.00 0.00 82 1015.6
20260905100124 26 0 0.0 0.0 0.00 0.00 0.00 82 1015.6
20260905094607 26 0 0.0 0.0 0.00 0.00 0.00 82 1015.6
20260905093101 26 0 0.0 0.0 0.00 0.00 0.00 83 1015.5
20260905091614 26 0 0.0 0.0 0.00 0.00 0.00 83 1015.7
20260905084603 27 0 0.0 1.6 0.00 0.00 0.00 79 1015.8
20260905083124 27 0 0.0 0.0 0.00 0.00 0.00 79 1015.8
20260905081619 27 0 0.0 0.0 0.00 0.00 0.00 80 1015.8
20260905080104 27 0 0.0 0.0 0.00 0.00 0.00 82 1016.1
20260905074601 27 0 0.0 1.6 0.00 0.00 0.00 82 1016.0
20260905073112 27 335 0.0 0.0 0.00 0.00 0.00 73 1016.1
20260905071615 27 0 0.0 0.0 0.00 0.00 0.00 76 1016.2
20260905070107 27 0 0.0 0.0 0.00 0.00 0.00 76 1016.2
20260905064618 27 0 0.0 0.0 0.00 0.00 0.00 76 1016.2
20260905063104 27 0 0.0 0.0 0.00 0.00 0.00 75 1016.2
20260905061610 27 0 0.0 0.0 0.00 0.00 0.00 76 1016.3
20260905060107 28 0 0.0 0.0 0.00 0.00 0.00 78 1016.4
20260905054710 28 0 0.0 0.0 0.00 0.00 0.00 75 1016.5
20260905053101 28 0 0.0 0.0 0.00 0.00 0.00 74 1016.5
20260905051606 28 0 0.0 0.0 0.00 0.00 0.00 73 1016.5
20260905050107 29 0 0.0 0.0 0.00 0.00 0.00 72 1016.2
20260905044609 29 0 0.0 0.0 0.00 0.00 0.00 72 1016.2
20260905043106 29 0 0.0 0.0 0.00 0.00 0.00 72 1016.2
20260905041609 30 0 0.0 0.0 0.00 0.00 0.00 70 1016.1
20260905040112 30 0 0.0 0.0 0.00 0.00 0.00 69 1016.0
20260905034608 30 0 0.0 0.0 0.00 0.00 0.00 69 1016.1
20260905033105 30 0 0.0 0.0 0.00 0.00 0.00 68 1016.0
20260905031611 30 0 0.0 1.6 0.00 0.00 0.00 67 1016.3
20260905030121 31 0 0.0 1.6 0.00 0.00 0.00 67 1016.3
20260905024615 31 0 0.0 0.0 0.00 0.00 0.00 63 1016.3
20260905023116 31 0 0.0 0.0 0.00 0.00 0.00 63 1016.2